This is the latest recevied weather packets stored in our database for station/object KY0TEQ-13. If no packets are shown the sender has not sent any weather packets the latest 10 day(s).
| Time | Temp. | Humidity | Pressure | Rain* | Wind** | Luminosity | Snow |
|---|---|---|---|---|---|---|---|
| 1777935203 | 16.67° C | 18% | 1297.6 hPa | 0 mm | - | 316 W/m² | - |
| 1777934901 | 16.67° C | 19% | 1297.6 hPa | 0 mm | - | 249 W/m² | - |
| 1777934598 | 16.67° C | 19% | 1297.4 hPa | 0 mm | - | 256 W/m² | - |
| 1777934294 | 16.67° C | 18% | 1297.6 hPa | 0 mm | - | 261 W/m² | - |
| 1777933990 | 16.67° C | 17% | 1297.6 hPa | 0 mm | - | 264 W/m² | - |
| 1777933687 | 16.67° C | 17% | 1297.7 hPa | 0 mm | - | 289 W/m² | - |
| 1777933383 | 16.67° C | 18% | 1297.8 hPa | 0 mm | - | 269 W/m² | - |
| 1777933081 | 16.67° C | 21% | 1297.9 hPa | 0 mm | - | 269 W/m² | - |
| 1777932778 | 16.67° C | 22% | 1297.9 hPa | 0 mm | - | 261 W/m² | - |
| 1777932475 | 16.67° C | 26% | 1297.8 hPa | 0 mm | - | 352 W/m² | - |
| 1777932172 | 16.67° C | 24% | 1298.1 hPa | 0 mm | - | 367 W/m² | - |
| 1777931869 | 16.67° C | 25% | 1298.1 hPa | 0 mm | - | 267 W/m² | - |
| 1777931566 | 16.67° C | 27% | 1298.1 hPa | 0 mm | - | 355 W/m² | - |
| 1777931261 | 16.67° C | 26% | 1297.9 hPa | 0 mm | - | 362 W/m² | - |
| 1777930958 | 16.11° C | 27% | 1297.9 hPa | 0 mm | - | 262 W/m² | - |
| 1777930655 | 16.67° C | 26% | 1297.9 hPa | 0 mm | - | 245 W/m² | - |
| 1777930351 | 17.22° C | 25% | 1298.3 hPa | 0 mm | - | 633 W/m² | - |
| 1777930049 | 16.67° C | 27% | 1298.5 hPa | 0 mm | - | 593 W/m² | - |
| 1777929740 | 16.11° C | 27% | 1298.7 hPa | 0 mm | - | 592 W/m² | - |
| 1777929437 | 16.11° C | 28% | 1298.5 hPa | 0 mm | - | 583 W/m² | - |
| 1777929133 | 16.11° C | 29% | 1298.7 hPa | 0 mm | - | 287 W/m² | - |
| 1777928830 | 16.11° C | 27% | 1298.8 hPa | 0 mm | - | 471 W/m² | - |
| 1777928527 | 16.11° C | 31% | 1298.8 hPa | 0 mm | - | 368 W/m² | - |
| 1777928224 | 16.11° C | 29% | 1298.5 hPa | 0 mm | - | 380 W/m² | - |
| 1777927921 | 15.56° C | 29% | 1298.9 hPa | 0 mm | - | 324 W/m² | - |
* Rain latest hour (hover to see other rain measurements)
** Current wind speed in m/s (hover to see current wind gust speed)